This is the latest recevied weather packets stored in our database for station/object SR9WXM. If no packets are shown the sender has not sent any weather packets the latest 1 day(s).
| Time | Temp. | Humidity | Pressure | Rain* | Wind** | Luminosity | Snow |
|---|---|---|---|---|---|---|---|
| 1836274767 | 14.44° C | 100% | 0 hPa | - | 2.24 m/s, 208° | - | - |
| 1836274647 | 14.44° C | 100% | 0 hPa | - | 2.68 m/s, 216° | - | - |
| 1836274527 | 14.44° C | 100% | 0 hPa | - | 2.24 m/s, 218° | - | - |
| 1836274499 | 14.44° C | 100% | 0 hPa | - | 2.68 m/s, 213° | - | - |
| 1836274407 | 14.44° C | 100% | 0 hPa | - | 2.24 m/s, 214° | - | - |
| 1836274379 | 14.44° C | 100% | 0 hPa | - | 2.68 m/s, 207° | - | - |
| 1836274285 | 14.44° C | 100% | 0 hPa | - | 2.24 m/s, 216° | - | - |
| 1836274259 | 14.44° C | 100% | 0 hPa | - | 2.68 m/s, 208° | - | - |
| 1836274165 | 14.44° C | 100% | 0 hPa | - | 2.24 m/s, 219° | - | - |
| 1836274137 | 14.44° C | 100% | 0 hPa | - | 2.68 m/s, 203° | - | - |
| 1836274045 | 14.44° C | 100% | 0 hPa | - | 2.24 m/s, 214° | - | - |
| 1836273925 | 14.44° C | 100% | 0 hPa | - | 2.24 m/s, 194° | - | - |
| 1778027069 | 11.67° C | 100% | 0 hPa | - | 8.49 m/s, 190° | - | - |
| 1778026829 | 11.67° C | 100% | 0 hPa | - | 7.15 m/s, 192° | - | - |
| 1778026589 | 11.67° C | 100% | 0 hPa | - | 7.6 m/s, 201° | - | - |
| 1778026349 | 12.22° C | 100% | 0 hPa | - | 6.71 m/s, 185° | - | - |
| 1778026109 | 12.22° C | 100% | 0 hPa | - | 6.26 m/s, 180° | - | - |
| 1778025867 | 12.22° C | 100% | 0 hPa | - | 7.6 m/s, 187° | - | - |
| 1778025628 | 12.22° C | 100% | 0 hPa | - | 6.71 m/s, 187° | - | - |
| 1778025388 | 12.22° C | 100% | 0 hPa | - | 6.71 m/s, 183° | - | - |
| 1778025148 | 12.22° C | 100% | 0 hPa | - | 6.26 m/s, 189° | - | - |
| 1778024908 | 12.22° C | 100% | 0 hPa | - | 4.92 m/s, 184° | - | - |
| 1778024666 | 12.22° C | 100% | 0 hPa | - | 4.47 m/s, 180° | - | - |
| 1778024424 | 11.67° C | 100% | 0 hPa | - | 6.26 m/s, 204° | - | - |
| 1778024184 | 11.67° C | 100% | 0 hPa | - | 4.47 m/s, 198° | - | - |
* Rain since midnight (hover to see other rain measurements)
** Current wind speed in m/s (hover to see current wind gust speed)